Other Public Products
Issued by NWS Grand Forks, ND

Home | Current Version | Previous Version | Text Only | Print | Product List | Glossary Off
Versions: 1 2 3 4 5 6 7 8 9 10 11 12 13 14 15 16 17 18 19 20 21 22 23 24 25 26 27 28 29 30 31 32 33 34 35 36 37 38 39 40 41 42 43 44 45 46 47 48 49 50

000
FPUS83 KFGF 060010
OPUFGF
PRAIRIE TO PINES WEATHER ROUNDUP
NATIONAL WEATHER SERVICE EASTERN NORTH DAKOTA/GRAND FORKS ND
700 PM CDT TUE MAY 05 2015

 **SATELLITE DATA USED TO AUGMENT SKY COVER AT AUTOMATED STATIONS**
 *****  WEATHER ACROSS EASTERN NORTH DAKOTA  *****

CITY           SKY/WX    TMP DP  RH WIND       PRES   REMARKS
GRAND FORKS    MOSUNNY   77  25  14 SE20G26   29.94F
6HR MIN TEMP:  73; 6HR MAX TEMP:  79;

GRAND FORKS AF NOT AVBL
GRAND CITY NWS   N/A     73 N/A N/A S13         N/A
BUXTON         NOT AVBL
DEVILS LAKE    CLOUDY    73  28  19 S15G21    29.92S
6HR MIN TEMP:  72; 6HR MAX TEMP:  75;

FARGO          MOSUNNY   76  48  37 SE22G30   29.96S
6HR MIN TEMP:  74; 6HR MAX TEMP:  81;

WAHPETON ARPT  MOCLDY    70  50  49 SE20G28   29.99S
$$

 *****  WEATHER ACROSS CENTRAL AND WESTERN NORTH DAKOTA  *****

CITY           SKY/WX    TMP DP  RH WIND       PRES   REMARKS
JAMESTOWN      SUNNY     75  40  28 S20G28    29.90F
6HR MIN TEMP:  71; 6HR MAX TEMP:  78;

BISMARCK       SUNNY     77  43  29 S17       29.84F
6HR MIN TEMP:  71; 6HR MAX TEMP:  79;

MINOT          SUNNY     76  28  17 SE18G29   29.83F
6HR MIN TEMP:  72; 6HR MAX TEMP:  78;

MINOT AFB      MOSUNNY   79  30  16 S21G30    29.82F
6HR MIN TEMP:  74; 6HR MAX TEMP:  80;

GARRISON         N/A     75  40  28 S17       29.83F
6HR MIN TEMP:  72; 6HR MAX TEMP:  77;

WILLISTON      MOSUNNY   78  48  34 SE22      29.74S
6HR MIN TEMP:  75; 6HR MAX TEMP:  82;

DICKINSON      MOSUNNY   70  49  47 S24G31    29.80F
6HR MIN TEMP:  68; 6HR MAX TEMP:  74;

HETTINGER      CLOUDY    64  49  57 SE24      29.84F
6HR MIN TEMP:  64; 6HR MAX TEMP:  70;

$$

 *****  OTHER OBSERVATIONS NORTHEAST NORTH DAKOTA  *****

CITY           SKY/WX    TMP DP  RH WIND       PRES   REMARKS
WALHALLA       FAIR      73  23  15 S13G22    29.95F
LANGDON        MOCLDY    73  23  15 S17       29.96S
CAVALIER       MOCLDY    75  21  13 S18       29.95S
GRAFTON        FAIR      77  25  14 S16G22    29.96F
CANDO          FAIR      73  25  16 SE17      29.92F
FORT TOTTEN      N/A     74  20  13 S12       29.95
ROLLA          NOT AVBL
RUGBY          NOT AVBL
 ***** THE ABOVE OBSERVATIONS ARE NON NWS ARE NOT QUALITY
        CONTROLLED AND MAY MIS-REPORT RAIN FOR SNOW...
$$

 *****  OTHER OBSERVATIONS SOUTHEAST NORTH DAKOTA *****

CITY           SKY/WX    TMP DP  RH WIND       PRES   REMARKS
COOPERSTOWN    NOT AVBL
VALLEY CITY    FAIR      73  50  43 SE20G33   29.93F
OAKES            N/A     72  55  56 SE22G28   29.93F
GWINNER        MOCLDY    73  52  46 SE20      29.96S
SHEYENNE NWR     N/A     74  49  41 S16       29.95S
BUFFALO        NOT AVBL
WYNDMERE         N/A     72  52  49 SE15        N/A
 ***** THE ABOVE OBSERVATIONS ARE NON NWS ARE NOT QUALITY
       CONTROLLED AND MAY MIS-REPORT RAIN FOR SNOW...
$$

  *****  WEATHER ACROSS NORTHERN MINNESOTA  *****

CITY           SKY/WX    TMP DP  RH WIND       PRES   REMARKS
FLAG ISLAND    SUNNY     66  46  48 CALM      30.04S
WARROAD        SUNNY     73  28  19 SE10      30.03F
ROSEAU         SUNNY     75  12   9 S13       30.01F
HALLOCK        MOSUNNY   75   1   5 S17       29.97S
THF RVR FALLS  MOSUNNY   73  25  16 S14       30.00F
6HR MIN TEMP:  70; 6HR MAX TEMP:  77;

HALSTAD        NOT AVBL
FOSSTON        MOSUNNY   73  28  19 SE12      30.02S
BAUDETTE       SUNNY     73  22  14 S10       30.04F
6HR MIN TEMP:  71; 6HR MAX TEMP:  75;

WASKISH        MOSUNNY   72  30  21 CALM      30.05S
CROOKSTON      PTSUNNY   75  27  16 S15       29.98F
$$
  *****  WEATHER ACROSS CENTRAL AND WEST MINNESOTA  *****

CITY           SKY/WX    TMP DP  RH WIND       PRES   REMARKS
BEMIDJI        SUNNY     70  34  26 SE13      30.04F
PARK RAPIDS    SUNNY     74  39  28 SE17G25   30.04F
6HR MIN TEMP:  71; 6HR MAX TEMP:  77;

WADENA         PTSUNNY   68  46  45 S17       30.05R
DETROIT LAKES  SUNNY     72  45  37 S18       30.03S
MOORHEAD       MOSUNNY   73  46  38 S21G28    29.98S
FERGUS FALLS   PTSUNNY   70  52  52 SE18      30.01S
ELBOW LAKE     FAIR      67  54  61 SE21G26   30.02S
6HR MIN TEMP:  67; 6HR MAX TEMP:  76;

MORRIS MN      CLOUDY    68  54  60 SE25      30.01S
STAPLES        CLOUDY    68  41  37 S14G23    30.06S
WHEATON        MOSUNNY   66  54  63 SE23G29   30.01R
$$
  *****  WEATHER ELSEWHERE ACROSS MINNESOTA  *****

CITY           SKY/WX    TMP DP  RH WIND       PRES   REMARKS
DULUTH         SUNNY     64  27  24 E13       30.14S
6HR MIN TEMP:  64; 6HR MAX TEMP:  71;

INTRNTL FALLS  SUNNY     71  23  16 SE8       30.07S
6HR MIN TEMP:  70; 6HR MAX TEMP:  74;

ELY            SUNNY     70  25  18 S12       30.13S
CLOQUET        SUNNY     63  25  23 E9        30.13F
BRAINERD       CLOUDY    69  39  33 S10G17    30.08S
6HR MIN TEMP:  68; 6HR MAX TEMP:  74;

HIBBING        MOSUNNY   71  28  20 SE14      30.10F
6HR MIN TEMP:  69; 6HR MAX TEMP:  74;

ALEXANDRIA     MOSUNNY   66  52  60 SE16      30.06F
6HR MIN TEMP:  66; 6HR MAX TEMP:  75;

SAINT CLOUD    CLOUDY    67  46  47 SE13      30.08F
6HR MIN TEMP:  66; 6HR MAX TEMP:  74;

MINNEAPOLIS    CLOUDY    64  51  62 SE16      30.12S
6HR MIN TEMP:  64; 6HR MAX TEMP:  70;

$$

  *****  WEATHER ACROSS SOUTH DAKOTA  *****

CITY           SKY/WX    TMP DP  RH WIND       PRES   REMARKS
SIOUX FALLS    CLOUDY    68  58  70 E12       29.98F
6HR MIN TEMP:  66; 6HR MAX TEMP:  70;

BROOKINGS      CLOUDY    63  57  82 SE15      30.01S
WATERTOWN      CLOUDY    65  56  72 SE17      29.99S
6HR MIN TEMP:  65; 6HR MAX TEMP:  75;

HURON          LGT RAIN  64  60  87 S7        29.94F
6HR MIN TEMP:  63; 6HR MAX TEMP:  77; 6HR PCP: TRACE;

SISSETON         N/A     70  56  61 S23G33    29.96F
ABERDEEN       CLOUDY    73  52  47 S21       29.92S
6HR MIN TEMP:  73; 6HR MAX TEMP:  80;

MITCHELL       CLOUDY    65  59  81 SE7       29.96F
PIERRE         CLOUDY    62  55  77 SE14      29.89F
6HR MIN TEMP:  61; 6HR MAX TEMP:  72; 6HR PCP: TRACE;

MOBRIDGE       PTSUNNY   74  51  44 S20       29.85F
RAPID CITY     CLOUDY    63  50  62 SE14      29.84F
6HR MIN TEMP:  61; 6HR MAX TEMP:  65;

$$

  *****  SOME WEATHER IN NEARBY STATES *****

CITY           SKY/WX    TMP DP  RH WIND       PRES   REMARKS
GLASGOW MT     MOSUNNY   79  40  24 SE7       29.63F
6HR MIN TEMP:  71; 6HR MAX TEMP:  80;

GREAT FALLS MT LGT RAIN  56  45  66 W17G35    29.72R
6HR MIN TEMP:  56; 6HR MAX TEMP:  73; 6HR PCP: TRACE;

CHEYENNE WY    CLOUDY    49  46  90 SE16      29.86F
6HR MIN TEMP:  47; 6HR MAX TEMP:  50; 6HR PCP:  0.02;

SCOTTSBLUFF NE CLOUDY    57  52  83 SE16      29.85F
6HR MIN TEMP:  56; 6HR MAX TEMP:  60; 6HR PCP: TRACE;

OMAHA NE       CLOUDY    75  59  57 SE13      29.97F
6HR MIN TEMP:  72; 6HR MAX TEMP:  77;

DES MOINES IA  CLOUDY    77  60  55 SE7       30.03S
6HR MIN TEMP:  70; 6HR MAX TEMP:  80; 6HR PCP:  0.02;

DAVENPORT IA   CLOUDY    64  59  83 E15       30.12S HAZE
6HR MIN TEMP:  64; 6HR MAX TEMP:  69;

CHICAGO IL     CLOUDY    50  47  89 NE9       30.20S FOG
6HR MIN TEMP:  48; 6HR MAX TEMP:  50;

EAU CLAIRE WI  CLOUDY    64  39  39 SE13      30.16F
6HR MIN TEMP:  64; 6HR MAX TEMP:  69;

LA CROSSE WI   RAIN      56  53  90 SE5       30.18S FOG
6HR MIN TEMP:  57; 6HR MAX TEMP:  59; 6HR PCP:  0.03;

$$

  *****  SOME NATIONAL WEATHER *****

CITY           SKY/WX    TMP DP  RH WIND       PRES   REMARKS


USA.gov is the U.S. government's official web portal to all federal, state and local government web resources and services.